Radiation Dose at Monitoring Post of Fukushima Daini Nuclear Power Station
Date,Time,MP-1(microSv/h),MP-2(microSv/h),MP-3(microSv/h),MP-4(microSv/h),MP-5(microSv/h),MP-6(microSv/h),MP-7(microSv/h),Wind Direction,Wind Velocity(m/s),Rain
2016/10/28,00:00,0.422,0.254,0.435,0.401,0.372,0.204,0.176,north-northwest,5.8,No
2016/10/28,00:10,0.420,0.254,0.437,0.398,0.371,0.204,0.176,north,5.2,No
2016/10/28,00:20,0.421,0.253,0.437,0.396,0.372,0.203,0.176,north,3.8,No
2016/10/28,00:30,0.422,0.253,0.435,0.400,0.373,0.205,0.177,north,2.3,No
2016/10/28,00:40,0.419,0.253,0.436,0.397,0.370,0.205,0.176,north-northwest,2.5,No
2016/10/28,00:50,0.422,0.253,0.437,0.399,0.371,0.204,0.176,north-northwest,2.7,No
2016/10/28,01:00,0.420,0.253,0.436,0.399,0.372,0.204,0.177,north-northwest,3.6,No
2016/10/28,01:10,0.419,0.253,0.438,0.399,0.369,0.204,0.176,north-northwest,5.0,No
2016/10/28,01:20,0.421,0.254,0.436,0.399,0.371,0.204,0.176,north-northwest,4.7,No
2016/10/28,01:30,0.420,0.252,0.437,0.399,0.374,0.203,0.175,northwest,4.5,No
2016/10/28,01:40,0.421,0.253,0.438,0.398,0.370,0.205,0.176,northwest,4.9,No
2016/10/28,01:50,0.424,0.253,0.436,0.399,0.371,0.204,0.177,west-northwest,6.5,No
2016/10/28,02:00,0.418,0.254,0.436,0.398,0.372,0.205,0.177,west-northwest,6.9,No
2016/10/28,02:10,0.422,0.254,0.437,0.397,0.370,0.206,0.176,west-northwest,5.7,No
2016/10/28,02:20,0.420,0.252,0.436,0.401,0.371,0.204,0.177,northwest,6.3,No
2016/10/28,02:30,0.419,0.252,0.438,0.399,0.373,0.205,0.177,west-northwest,4.2,No
2016/10/28,02:40,0.424,0.252,0.437,0.400,0.370,0.204,0.176,north-northwest,0.7,No
2016/10/28,02:50,0.420,0.252,0.436,0.397,0.370,0.204,0.175,north-northwest,0.5,No
2016/10/28,03:00,0.420,0.253,0.438,0.398,0.372,0.203,0.177,north-northwest,1.2,No
2016/10/28,03:10,0.422,0.253,0.434,0.400,0.370,0.204,0.175,west,0.6,No
2016/10/28,03:20,0.420,0.253,0.437,0.400,0.369,0.204,0.176,-,CALM,No
2016/10/28,03:30,0.418,0.253,0.435,0.399,0.374,0.203,0.177,west-northwest,1.4,No
2016/10/28,03:40,0.421,0.251,0.436,0.399,0.370,0.203,0.177,west-northwest,1.1,No
2016/10/28,03:50,0.421,0.253,0.437,0.397,0.371,0.204,0.176,north-northwest,3.3,No
2016/10/28,04:00,0.420,0.253,0.435,0.399,0.371,0.204,0.176,north-northwest,3.4,No
2016/10/28,04:10,0.422,0.253,0.436,0.398,0.370,0.205,0.177,north-northwest,1.9,No
2016/10/28,04:20,0.419,0.252,0.438,0.397,0.371,0.204,0.177,north-northwest,3.3,No
2016/10/28,04:30,0.419,0.253,0.437,0.400,0.371,0.204,0.177,north-northeast,2.4,No
2016/10/28,04:40,0.420,0.253,0.437,0.398,0.370,0.203,0.176,north,1.9,No
2016/10/28,04:50,0.421,0.252,0.437,0.396,0.372,0.204,0.176,northeast,2.8,No
2016/10/28,05:00,0.420,0.253,0.435,0.399,0.371,0.205,0.176,north-northeast,2.5,No
2016/10/28,05:10,0.421,0.253,0.438,0.398,0.370,0.204,0.178,north,3.4,No
2016/10/28,05:20,0.420,0.252,0.436,0.398,0.372,0.204,0.177,north-northwest,3.3,No
2016/10/28,05:30,0.421,0.253,0.435,0.399,0.369,0.204,0.175,northwest,2.9,No
2016/10/28,05:40,0.422,0.252,0.437,0.399,0.372,0.204,0.177,northwest,2.6,No
2016/10/28,05:50,0.419,0.253,0.436,0.400,0.372,0.203,0.177,north-northwest,2.5,No
2016/10/28,06:00,0.422,0.252,0.438,0.399,0.370,0.204,0.176,northwest,2.7,No
2016/10/28,06:10,0.420,0.253,0.436,0.397,0.368,0.203,0.176,north,3.1,No
2016/10/28,06:20,0.420,0.252,0.436,0.399,0.371,0.204,0.177,north,2.9,No
2016/10/28,06:30,0.421,0.254,0.437,0.399,0.372,0.205,0.176,north-northwest,4.1,No
2016/10/28,06:40,0.419,0.253,0.437,0.399,0.371,0.205,0.175,north,3.8,No
2016/10/28,06:50,0.419,0.254,0.434,0.400,0.372,0.204,0.177,north,1.9,No
2016/10/28,07:00,0.423,0.253,0.438,0.397,0.368,0.204,0.176,north,2.1,No
2016/10/28,07:10,0.420,0.253,0.435,0.398,0.370,0.204,0.176,north-northwest,3.0,No
2016/10/28,07:20,0.418,0.252,0.433,0.399,0.372,0.204,0.177,north-northwest,3.4,No
2016/10/28,07:30,0.421,0.253,0.439,0.399,0.370,0.203,0.177,north-northwest,3.5,No
2016/10/28,07:40,0.420,0.252,0.435,0.400,0.371,0.204,0.177,north-northwest,3.6,No
2016/10/28,07:50,0.420,0.253,0.439,0.398,0.370,0.204,0.176,north-northwest,3.6,No
2016/10/28,08:00,0.421,0.254,0.436,0.400,0.369,0.205,0.176,north-northwest,3.6,No
2016/10/28,08:10,0.419,0.252,0.436,0.398,0.374,0.205,0.176,north-northwest,3.5,No
2016/10/28,08:20,0.421,0.252,0.437,0.398,0.369,0.204,0.176,north-northwest,3.6,No
2016/10/28,08:30,0.420,0.254,0.435,0.401,0.371,0.205,0.176,north-northwest,3.2,No
2016/10/28,08:40,0.422,0.252,0.440,0.397,0.371,0.205,0.176,northwest,2.3,No
2016/10/28,08:50,0.420,0.254,0.435,0.399,0.369,0.205,0.176,northwest,2.5,No
2016/10/28,09:00,0.418,0.253,0.435,0.398,0.371,0.204,0.177,north-northwest,2.2,No
2016/10/28,09:10,0.420,0.253,0.436,0.398,0.372,0.204,0.176,northeast,1.6,No
2016/10/28,09:20,0.419,0.254,0.435,0.396,0.371,0.204,0.175,northeast,1.6,No
2016/10/28,09:30,0.420,0.253,0.436,0.396,0.372,0.206,0.177,northeast,0.8,No
2016/10/28,09:40,0.421,0.254,0.436,0.399,0.369,0.204,0.176,northeast,1.0,No
2016/10/28,09:50,0.420,0.252,0.436,0.396,0.370,0.205,0.176,northeast,1.2,No
2016/10/28,10:00,0.419,0.252,0.438,0.400,0.371,0.205,0.176,north-northeast,0.7,No
2016/10/28,10:10,0.419,0.252,0.434,0.397,0.372,0.205,0.177,north-northeast,1.5,No
2016/10/28,10:20,0.422,0.252,0.438,0.398,0.371,0.204,0.176,north,2.3,No
2016/10/28,10:30,0.420,0.253,0.435,0.397,0.371,0.204,0.177,northwest,1.1,No
2016/10/28,10:40,0.419,0.253,0.437,0.397,0.371,0.206,0.177,north,1.1,No
2016/10/28,10:50,0.421,0.253,0.437,0.401,0.371,0.205,0.176,north,1.7,No
2016/10/28,11:00,0.420,0.253,0.439,0.397,0.372,0.205,0.177,north,2.8,No
2016/10/28,11:10,0.421,0.254,0.435,0.400,0.369,0.205,0.176,north-northwest,3.5,No
2016/10/28,11:20,0.421,0.253,0.437,0.397,0.373,0.206,0.176,north-northwest,4.4,No
2016/10/28,11:30,0.422,0.253,0.438,0.398,0.371,0.204,0.176,north-northwest,4.4,No
2016/10/28,11:40,0.421,0.254,0.437,0.398,0.370,0.206,0.177,north-northwest,3.3,No
2016/10/28,11:50,0.419,0.252,0.437,0.401,0.371,0.206,0.177,north-northwest,2.3,Yes
2016/10/28,12:00,0.425,0.255,0.438,0.399,0.370,0.204,0.176,north-northwest,4.3,No
2016/10/28,12:10,0.420,0.252,0.436,0.399,0.373,0.205,0.177,north-northwest,4.4,Yes
2016/10/28,12:20,0.421,0.253,0.437,0.399,0.371,0.204,0.177,north-northwest,5.2,Yes
2016/10/28,12:30,0.421,0.254,0.434,0.397,0.371,0.206,0.177,north-northwest,4.7,No
2016/10/28,12:40,0.420,0.253,0.439,0.400,0.372,0.205,0.178,north-northwest,4.0,Yes
2016/10/28,12:50,0.421,0.253,0.436,0.398,0.372,0.205,0.177,north-northwest,4.2,Yes
2016/10/28,13:00,0.420,0.254,0.437,0.402,0.373,0.205,0.178,north-northwest,3.2,Yes
2016/10/28,13:10,0.423,0.253,0.437,0.399,0.372,0.206,0.176,north-northwest,4.0,No
2016/10/28,13:20,0.423,0.253,0.436,0.397,0.372,0.205,0.177,northwest,3.1,No
2016/10/28,13:30,0.423,0.253,0.438,0.399,0.372,0.205,0.177,northwest,1.6,Yes
2016/10/28,13:40,0.421,0.254,0.436,0.400,0.372,0.205,0.176,west-northwest,2.2,No
2016/10/28,13:50,0.421,0.254,0.440,0.400,0.373,0.205,0.176,west-northwest,2.2,No
2016/10/28,14:00,0.421,0.253,0.437,0.399,0.371,0.205,0.176,west-northwest,2.4,Yes
2016/10/28,14:10,0.421,0.254,0.436,0.400,0.373,0.205,0.177,west-northwest,1.9,Yes
2016/10/28,14:20,0.422,0.254,0.439,0.399,0.373,0.206,0.179,west,1.9,Yes
2016/10/28,14:30,0.424,0.255,0.438,0.401,0.371,0.206,0.177,west-northwest,1.1,Yes
2016/10/28,14:40,0.422,0.255,0.440,0.399,0.375,0.207,0.177,west-northwest,1.5,Yes
2016/10/28,14:50,0.424,0.257,0.438,0.400,0.373,0.207,0.179,northwest,0.5,Yes
2016/10/28,15:00,0.425,0.257,0.439,0.403,0.374,0.209,0.179,west-northwest,0.7,Yes
2016/10/28,15:10,0.424,0.258,0.441,0.402,0.373,0.210,0.181,west-northwest,1.2,Yes
2016/10/28,15:20,0.426,0.258,0.440,0.404,0.374,0.211,0.183,west,2.8,Yes
2016/10/28,15:30,0.425,0.259,0.441,0.401,0.376,0.211,0.182,south-southeast,2.2,Yes
2016/10/28,15:40,0.424,0.259,0.438,0.401,0.375,0.212,0.183,west-northwest,3.0,Yes
2016/10/28,15:50,0.426,0.260,0.438,0.399,0.375,0.212,0.183,southwest,5.1,Yes
2016/10/28,16:00,0.423,0.257,0.437,0.399,0.373,0.212,0.183,southwest,6.7,Yes
2016/10/28,16:10,0.422,0.258,0.437,0.402,0.372,0.212,0.183,south-southwest,7.5,Yes
2016/10/28,16:20,0.424,0.260,0.437,0.399,0.375,0.214,0.183,southeast,1.0,Yes
2016/10/28,16:30,0.422,0.260,0.434,0.401,0.373,0.212,0.183,north-northwest,1.1,Yes
2016/10/28,16:40,0.422,0.259,0.437,0.398,0.376,0.213,0.182,west-southwest,2.2,Yes
2016/10/28,16:50,0.421,0.259,0.434,0.398,0.374,0.212,0.182,northwest,1.5,Yes
2016/10/28,17:00,0.422,0.260,0.434,0.400,0.374,0.214,0.183,south,13.3,Yes
2016/10/28,17:10,0.425,0.261,0.437,0.400,0.376,0.215,0.186,north-northeast,2.2,Yes
2016/10/28,17:20,0.423,0.262,0.435,0.402,0.376,0.215,0.187,north,8.4,Yes
2016/10/28,17:30,0.425,0.263,0.440,0.399,0.377,0.215,0.186,northwest,3.2,Yes
2016/10/28,17:40,0.426,0.262,0.437,0.400,0.378,0.218,0.188,-,CALM,Yes
2016/10/28,17:50,0.424,0.264,0.435,0.402,0.377,0.218,0.187,west-southwest,7.2,Yes
2016/10/28,18:00,0.427,0.264,0.437,0.399,0.379,0.218,0.187,west-southwest,4.4,Yes
2016/10/28,18:10,0.425,0.263,0.436,0.401,0.379,0.217,0.188,northwest,3.4,Yes
2016/10/28,18:20,0.424,0.265,0.437,0.400,0.378,0.219,0.189,southwest,13.8,Yes
2016/10/28,18:30,0.425,0.263,0.435,0.400,0.379,0.218,0.187,north-northwest,4.3,Yes
2016/10/28,18:40,0.423,0.263,0.435,0.401,0.379,0.218,0.188,north-northwest,2.4,Yes
2016/10/28,18:50,0.422,0.262,0.436,0.398,0.377,0.217,0.188,north,2.8,Yes
2016/10/28,19:00,0.422,0.260,0.431,0.397,0.377,0.214,0.186,north-northwest,4.2,Yes
2016/10/28,19:10,0.420,0.259,0.433,0.395,0.377,0.213,0.184,north-northwest,4.3,Yes
2016/10/28,19:20,0.416,0.258,0.429,0.394,0.374,0.212,0.182,north-northwest,3.9,Yes
2016/10/28,19:30,0.419,0.256,0.430,0.396,0.375,0.209,0.182,north-northwest,4.2,Yes
2016/10/28,19:40,0.419,0.256,0.429,0.391,0.374,0.210,0.181,north-northwest,3.6,Yes
2016/10/28,19:50,0.417,0.256,0.428,0.395,0.373,0.209,0.179,north-northwest,4.2,Yes
2016/10/28,20:00,0.418,0.254,0.428,0.393,0.373,0.208,0.180,north-northwest,4.5,Yes
2016/10/28,20:10,0.415,0.253,0.427,0.392,0.371,0.208,0.181,north-northwest,5.5,Yes
2016/10/28,20:20,0.415,0.255,0.426,0.391,0.372,0.208,0.181,southwest,11.9,Yes
2016/10/28,20:30,0.416,0.255,0.426,0.391,0.372,0.209,0.183,north,7.2,Yes
2016/10/28,20:40,0.415,0.254,0.423,0.392,0.371,0.209,0.180,west-southwest,5.3,Yes
2016/10/28,20:50,0.413,0.256,0.425,0.390,0.373,0.208,0.182,north-northeast,14.1,Yes
2016/10/28,21:00,0.416,0.254,0.424,0.389,0.371,0.209,0.180,northwest,3.8,Yes
2016/10/28,21:10,0.414,0.255,0.422,0.391,0.371,0.208,0.182,north-northwest,6.4,Yes
2016/10/28,21:20,0.414,0.254,0.425,0.386,0.375,0.210,0.181,west,6.7,Yes
2016/10/28,21:30,0.413,0.253,0.422,0.390,0.372,0.208,0.180,north-northwest,5.2,Yes
2016/10/28,21:40,0.413,0.254,0.423,0.388,0.372,0.207,0.179,north-northwest,5.3,Yes
2016/10/28,21:50,0.414,0.253,0.423,0.388,0.373,0.207,0.179,north-northwest,5.5,Yes
2016/10/28,22:00,0.412,0.252,0.420,0.389,0.370,0.206,0.178,north-northwest,6.1,Yes
2016/10/28,22:10,0.411,0.251,0.423,0.386,0.371,0.206,0.178,north-northwest,7.4,Yes
2016/10/28,22:20,0.409,0.252,0.422,0.388,0.371,0.204,0.178,north-northwest,6.5,Yes
2016/10/28,22:30,0.411,0.251,0.422,0.385,0.369,0.204,0.177,north-northwest,7.0,Yes
2016/10/28,22:40,0.408,0.252,0.421,0.385,0.372,0.205,0.178,north-northwest,7.3,Yes
2016/10/28,22:50,0.411,0.250,0.419,0.385,0.370,0.205,0.177,north-northwest,8.1,Yes
2016/10/28,23:00,0.409,0.251,0.420,0.383,0.368,0.205,0.177,north-northwest,9.7,Yes
2016/10/28,23:10,0.407,0.251,0.419,0.383,0.370,0.204,0.179,north-northwest,9.2,Yes
2016/10/28,23:20,0.409,0.252,0.419,0.383,0.368,0.205,0.180,north-northwest,9.8,Yes
2016/10/28,23:30,0.411,0.250,0.422,0.384,0.373,0.206,0.178,north-northwest,9.5,Yes
2016/10/28,23:40,0.409,0.252,0.418,0.385,0.370,0.206,0.179,north-northwest,10.5,Yes
2016/10/28,23:50,0.409,0.250,0.422,0.381,0.372,0.206,0.178,north-northwest,10.4,Yes
